ONEWEB-0098 (45442 NORAD) Tracking and Keplerian Element Data

This shows tracking and keplerian element data for the satellite.

Feedback or suggestion? Click here.




ElementValue
Catalog45442
NameONEWEB-0098
Epoch Orbit157
Epoch Day93.91667824
Epoch Year2020
RAAN134.5931
Inclination87.3993
Eccentricity0.0023247
Argument of Perigee251.2868
Mean Anonmoly262.4912
Mean Motion15.3610749
Decay Rate0.00043247
L11 45442U 20020U 20093.91667824 .00043247 00000-0 12139-2 0 9998
L22 45442 87.3993 134.5931 0023247 251.2868 262.4912 15.36107490 1571

Live tracking and technical data element details for ONEWEB-0098 (NORAD 45442). ONEWEB-0098 can be tracked NOW for your location showing map with azimuth and elevation plus other details from your city location.

Track the satellite on the map from your city or location and see movement details for azimuth, elevation, latitude, longitude, range, height, and movement on the map or in text.







IsCatalogInMostPopularTable: catalog: 45442, numindb: 3
Update: records affected: 1



GetName: 45442 ONEWEB-0098

Hit Count: updated at: Mon, 06 Apr 2020 10:46:01 GMT